| time (UTC) | temp C | wind direction | speed KPH | gust KPH | rain 1hr cm | rain 24hr cm | rain mn cm | humidity % | barometer mb |
| 20260507070041 | 16 | 224 | 3.2 | 9.7 | 0.00 | 0.00 | 0.00 | 77 | 1015.6 |
| 20260507064941 | 16 | 238 | 9.7 | 11.3 | 0.00 | 0.00 | 0.00 | 76 | 1015.7 |
| 20260507063842 | 16 | 212 | 1.6 | 11.3 | 0.00 | 0.00 | 0.00 | 76 | 1015.7 |
| 20260507062741 | 16 | 198 | 1.6 | 12.9 | 0.00 | 0.00 | 0.00 | 76 | 1015.4 |
| 20260507061641 | 16 | 217 | 4.8 | 14.5 | 0.00 | 0.00 | 0.00 | 76 | 1015.4 |
| 20260507060541 | 16 | 211 | 8.0 | 9.7 | 0.00 | 0.00 | 0.00 | 75 | 1015.5 |
| 20260507055441 | 16 | 190 | 0.0 | 6.4 | 0.00 | 0.00 | 0.00 | 75 | 1015.5 |
| 20260507054341 | 16 | 227 | 0.0 | 12.9 | 0.00 | 0.00 | 0.00 | 75 | 1015.5 |
| 20260507053241 | 16 | 215 | 0.0 | 9.7 | 0.00 | 0.00 | 0.00 | 75 | 1015.5 |
| 20260507052141 | 16 | 153 | 3.2 | 6.4 | 0.00 | 0.00 | 0.00 | 77 | 1015.3 |
| 20260507051041 | 16 | 152 | 1.6 | 6.4 | 0.00 | 0.00 | 0.00 | 76 | 1015.2 |
| 20260507045941 | 16 | 155 | 3.2 | 8.0 | 0.00 | 0.00 | 0.00 | 75 | 1015.1 |
| 20260507044841 | 15 | 170 | 0.0 | 1.6 | 0.00 | 0.00 | 0.00 | 76 | 1015.0 |
| 20260507043741 | 16 | 213 | 0.0 | 3.2 | 0.00 | 0.00 | 0.00 | 77 | 1015.1 |
| 20260507042641 | 16 | 267 | 3.2 | 6.4 | 0.00 | 0.00 | 0.00 | 75 | 1015.0 |
| 20260507041541 | 16 | 224 | 3.2 | 4.8 | 0.00 | 0.00 | 0.00 | 75 | 1014.8 |
| 20260507040441 | 16 | 232 | 4.8 | 8.0 | 0.00 | 0.00 | 0.00 | 75 | 1014.7 |
| 20260507035341 | 16 | 232 | 1.6 | 6.4 | 0.00 | 0.00 | 0.00 | 76 | 1014.6 |
| 20260507035043 | 16 | 138 | 0.0 | 3.2 | 0.00 | 0.00 | 0.00 | 76 | 1014.5 |
| 20260507034241 | 16 | 138 | 1.6 | 6.4 | 0.00 | 0.00 | 0.00 | 76 | 1014.4 |
| 20260507033141 | 16 | 156 | 0.0 | 4.8 | 0.00 | 0.00 | 0.00 | 78 | 1014.3 |
| 20260507032041 | 16 | 223 | 0.0 | 1.6 | 0.00 | 0.00 | 0.00 | 79 | 1014.3 |
| 20260507031046 | 16 | 223 | 0.0 | 1.6 | 0.00 | 0.00 | 0.00 | 79 | 1014.2 |
| 20260507030941 | 16 | 223 | 0.0 | 1.6 | 0.00 | 0.00 | 0.00 | 79 | 1014.2 |
| 20260507025841 | 16 | 223 | 0.0 | 1.6 | 0.00 | 0.00 | 0.00 | 79 | 1014.1 |
| 20260507024741 | 16 | 223 | 0.0 | 4.8 | 0.00 | 0.00 | 0.00 | 79 | 1014.0 |
| 20260507023641 | 16 | 229 | 1.6 | 3.2 | 0.00 | 0.00 | 0.00 | 79 | 1014.0 |
| 20260507022541 | 16 | 240 | 0.0 | 0.0 | 0.00 | 0.00 | 0.00 | 79 | 1013.9 |
| 20260507022042 | 16 | 240 | 0.0 | 1.6 | 0.00 | 0.00 | 0.00 | 79 | 1013.7 |
| 20260507021441 | 16 | 240 | 0.0 | 4.8 | 0.00 | 0.00 | 0.00 | 79 | 1013.7 |
| 20260507021042 | 16 | 240 | 1.6 | 6.4 | 0.00 | 0.00 | 0.00 | 79 | 1013.7 |
| 20260507020341 | 16 | 249 | 3.2 | 6.4 | 0.00 | 0.00 | 0.00 | 79 | 1013.8 |
| 20260507020042 | 16 | 245 | 3.2 | 6.4 | 0.00 | 0.00 | 0.00 | 79 | 1013.7 |
| 20260507015241 | 16 | 260 | 3.2 | 4.8 | 0.00 | 0.00 | 0.00 | 79 | 1013.6 |
| 20260507015042 | 16 | 242 | 3.2 | 3.2 | 0.00 | 0.00 | 0.00 | 79 | 1013.6 |
| 20260507014141 | 16 | 281 | 0.0 | 3.2 | 0.00 | 0.00 | 0.00 | 78 | 1013.5 |
| 20260507014042 | 16 | 281 | 0.0 | 3.2 | 0.00 | 0.00 | 0.00 | 78 | 1013.5 |
| 20260507013053 | 16 | 286 | 1.6 | 3.2 | 0.00 | 0.00 | 0.00 | 78 | 1013.5 |
| 20260507012040 | 16 | 290 | 1.6 | 4.8 | 0.00 | 0.00 | 0.00 | 78 | 1013.3 |
| 20260507011042 | 16 | 296 | 0.0 | 1.6 | 0.00 | 0.00 | 0.00 | 77 | 1013.2 |
| 20260507010940 | 16 | 296 | 0.0 | 1.6 | 0.00 | 0.00 | 0.00 | 77 | 1013.4 |
| 20260507010041 | 16 | 296 | 0.0 | 1.6 | 0.00 | 0.00 | 0.00 | 76 | 1013.3 |
| 20260507005840 | 16 | 289 | 1.6 | 1.6 | 0.00 | 0.00 | 0.00 | 76 | 1013.2 |
| 20260507005041 | 16 | 252 | 0.0 | 4.8 | 0.00 | 0.00 | 0.00 | 75 | 1013.2 |
| 20260507004740 | 16 | 252 | 0.0 | 4.8 | 0.00 | 0.00 | 0.00 | 75 | 1013.2 |
| 20260507004041 | 16 | 275 | 3.2 | 3.2 | 0.00 | 0.00 | 0.00 | 74 | 1013.2 |
| 20260507003640 | 17 | 300 | 1.6 | 3.2 | 0.00 | 0.00 | 0.00 | 73 | 1013.2 |
| 20260507003043 | 17 | 285 | 0.0 | 3.2 | 0.00 | 0.00 | 0.00 | 73 | 1013.2 |
| 20260507002541 | 17 | 294 | 0.0 | 3.2 | 0.00 | 0.00 | 0.00 | 72 | 1013.3 |
| 20260507002042 | 17 | 294 | 1.6 | 6.4 | 0.00 | 0.00 | 0.00 | 71 | 1013.2 |
| 20260507001441 | 17 | 286 | 0.0 | 6.4 | 0.00 | 0.00 | 0.00 | 71 | 1013.1 |
| 20260507001042 | 17 | 267 | 1.6 | 4.8 | 0.00 | 0.00 | 0.00 | 70 | 1013.3 |
| 20260507000343 | 17 | 289 | 3.2 | 6.4 | 0.00 | 0.00 | 0.00 | 69 | 1013.3 |
| 20260507000043 | 17 | 261 | 3.2 | 6.4 | 0.00 | 0.00 | 0.00 | 69 | 1013.4 |
| 20260506235241 | 18 | 259 | 1.6 | 8.0 | 0.00 | 0.00 | 0.00 | 68 | 1013.2 |
| 20260506235042 | 18 | 297 | 4.8 | 8.0 | 0.00 | 0.00 | 0.00 | 67 | 1013.2 |
| 20260506234141 | 18 | 253 | 4.8 | 8.0 | 0.00 | 0.00 | 0.00 | 66 | 1013.1 |
| 20260506234042 | 18 | 243 | 6.4 | 8.0 | 0.00 | 0.00 | 0.00 | 66 | 1013.2 |
| 20260506233041 | 18 | 256 | 8.0 | 14.5 | 0.00 | 0.00 | 0.00 | 66 | 1013.2 |
| 20260506232045 | 18 | 255 | 6.4 | 12.9 | 0.00 | 0.00 | 0.00 | 65 | 1013.2 |
| 20260506231941 | 18 | 253 | 8.0 | 11.3 | 0.00 | 0.00 | 0.00 | 65 | 1013.2 |
| 20260506231042 | 18 | 296 | 8.0 | 14.5 | 0.00 | 0.00 | 0.00 | 64 | 1013.2 |
| 20260506230841 | 18 | 288 | 6.4 | 14.5 | 0.00 | 0.00 | 0.00 | 63 | 1013.1 |
| 20260506230042 | 18 | 305 | 6.4 | 11.3 | 0.00 | 0.00 | 0.00 | 62 | 1013.0 |
| 20260506225741 | 18 | 252 | 3.2 | 11.3 | 0.00 | 0.00 | 0.00 | 62 | 1013.0 |
| 20260506225043 | 19 | 266 | 4.8 | 14.5 | 0.00 | 0.00 | 0.00 | 61 | 1013.0 |
| 20260506224641 | 19 | 265 | 6.4 | 14.5 | 0.00 | 0.00 | 0.00 | 61 | 1012.9 |
| 20260506224043 | 19 | 252 | 4.8 | 16.1 | 0.00 | 0.00 | 0.00 | 61 | 1012.8 |
| 20260506223541 | 19 | 259 | 9.7 | 16.1 | 0.00 | 0.00 | 0.00 | 61 | 1012.7 |
| 20260506223042 | 19 | 261 | 9.7 | 12.9 | 0.00 | 0.00 | 0.00 | 60 | 1012.4 |
| 20260506222441 | 19 | 242 | 4.8 | 11.3 | 0.00 | 0.00 | 0.00 | 60 | 1012.4 |
| 20260506222051 | 19 | 225 | 6.4 | 11.3 | 0.00 | 0.00 | 0.00 | 60 | 1012.4 |
| 20260506221340 | 19 | 213 | 6.4 | 8.0 | 0.00 | 0.00 | 0.00 | 61 | 1012.3 |
| 20260506221042 | 19 | 210 | 3.2 | 6.4 | 0.00 | 0.00 | 0.00 | 60 | 1012.3 |
| 20260506220241 | 19 | 212 | 3.2 | 8.0 | 0.00 | 0.00 | 0.00 | 60 | 1012.3 |
| 20260506220041 | 19 | 209 | 4.8 | 8.0 | 0.00 | 0.00 | 0.00 | 60 | 1012.3 |
| 20260506215141 | 19 | 221 | 4.8 | 8.0 | 0.00 | 0.00 | 0.00 | 60 | 1012.2 |
| 20260506215044 | 19 | 233 | 6.4 | 8.0 | 0.00 | 0.00 | 0.00 | 60 | 1012.2 |
| 20260506214040 | 19 | 234 | 6.4 | 6.4 | 0.00 | 0.00 | 0.00 | 59 | 1012.1 |
| 20260506213042 | 20 | 267 | 3.2 | 6.4 | 0.00 | 0.00 | 0.00 | 59 | 1012.1 |
| 20260506212940 | 20 | 253 | 3.2 | 6.4 | 0.00 | 0.00 | 0.00 | 59 | 1012.1 |
| 20260506212042 | 20 | 230 | 4.8 | 8.0 | 0.00 | 0.00 | 0.00 | 59 | 1012.0 |
| 20260506211840 | 20 | 232 | 6.4 | 8.0 | 0.00 | 0.00 | 0.00 | 59 | 1012.1 |
| 20260506211042 | 20 | 225 | 3.2 | 8.0 | 0.00 | 0.00 | 0.00 | 58 | 1012.0 |
| 20260506210740 | 20 | 221 | 4.8 | 8.0 | 0.00 | 0.00 | 0.00 | 58 | 1012.0 |
| 20260506210042 | 20 | 259 | 3.2 | 8.0 | 0.00 | 0.00 | 0.00 | 57 | 1012.0 |
| 20260506205640 | 20 | 245 | 4.8 | 8.0 | 0.00 | 0.00 | 0.00 | 57 | 1012.0 |
| 20260506205049 | 20 | 241 | 3.2 | 6.4 | 0.00 | 0.00 | 0.00 | 57 | 1011.9 |
| 20260506204540 | 20 | 217 | 3.2 | 6.4 | 0.00 | 0.00 | 0.00 | 57 | 1011.8 |
| 20260506204041 | 20 | 203 | 0.0 | 6.4 | 0.00 | 0.00 | 0.00 | 57 | 1011.8 |
| 20260506203440 | 20 | 193 | 0.0 | 6.4 | 0.00 | 0.00 | 0.00 | 57 | 1011.7 |
| 20260506203042 | 20 | 216 | 1.6 | 6.4 | 0.00 | 0.00 | 0.00 | 57 | 1011.7 |
| 20260506202340 | 20 | 196 | 0.0 | 4.8 | 0.00 | 0.00 | 0.00 | 57 | 1011.7 |
| 20260506202042 | 20 | 196 | 0.0 | 4.8 | 0.00 | 0.00 | 0.00 | 57 | 1011.6 |
| 20260506201240 | 20 | 180 | 0.0 | 8.0 | 0.00 | 0.00 | 0.00 | 57 | 1011.7 |
| 20260506201041 | 20 | 158 | 0.0 | 8.0 | 0.00 | 0.00 | 0.00 | 57 | 1011.7 |
| 20260506200140 | 20 | 133 | 3.2 | 12.9 | 0.00 | 0.00 | 0.00 | 57 | 1011.5 |
| 20260506200041 | 20 | 161 | 6.4 | 12.9 | 0.00 | 0.00 | 0.00 | 57 | 1011.5 |
| 20260506195040 | 20 | 136 | 11.3 | 12.9 | 0.00 | 0.00 | 0.00 | 56 | 1011.3 |
| 20260506194042 | 20 | 133 | 11.3 | 12.9 | 0.00 | 0.00 | 0.00 | 56 | 1011.3 |
| 20260506193940 | 20 | 137 | 6.4 | 11.3 | 0.00 | 0.00 | 0.00 | 57 | 1011.2 |
| 20260506193041 | 20 | 164 | 8.0 | 8.0 | 0.00 | 0.00 | 0.00 | 57 | 1011.3 |
| 20260506192840 | 20 | 217 | 0.0 | 8.0 | 0.00 | 0.00 | 0.00 | 57 | 1011.4 |
| 20260506192048 | 21 | 200 | 0.0 | 11.3 | 0.00 | 0.00 | 0.00 | 56 | 1011.2 |
| 20260506191740 | 21 | 252 | 6.4 | 12.9 | 0.00 | 0.00 | 0.00 | 56 | 1011.1 |
| 20260506191041 | 21 | 140 | 11.3 | 14.5 | 0.00 | 0.00 | 0.00 | 53 | 1010.9 |
| 20260506190640 | 21 | 141 | 11.3 | 14.5 | 0.00 | 0.00 | 0.00 | 53 | 1010.9 |
| 20260506190041 | 22 | 148 | 6.4 | 16.1 | 0.00 | 0.00 | 0.00 | 53 | 1010.9 |
| 20260506185540 | 22 | 119 | 3.2 | 16.1 | 0.00 | 0.00 | 0.00 | 53 | 1010.9 |
| 20260506185044 | 21 | 132 | 3.2 | 14.5 | 0.00 | 0.00 | 0.00 | 53 | 1010.9 |
| 20260506184440 | 22 | 134 | 4.8 | 9.7 | 0.00 | 0.00 | 0.00 | 54 | 1010.7 |
| 20260506184041 | 22 | 114 | 3.2 | 6.4 | 0.00 | 0.00 | 0.00 | 54 | 1010.8 |
| 20260506183340 | 22 | 109 | 3.2 | 9.7 | 0.00 | 0.00 | 0.00 | 54 | 1010.7 |
| 20260506183041 | 22 | 96 | 4.8 | 9.7 | 0.00 | 0.00 | 0.00 | 54 | 1010.6 |
| 20260506182240 | 22 | 99 | 4.8 | 9.7 | 0.00 | 0.00 | 0.00 | 53 | 1010.7 |
| 20260506182042 | 22 | 89 | 4.8 | 9.7 | 0.00 | 0.00 | 0.00 | 53 | 1010.7 |
| 20260506181140 | 22 | 94 | 6.4 | 9.7 | 0.00 | 0.00 | 0.00 | 53 | 1010.6 |
| 20260506181041 | 22 | 97 | 3.2 | 9.7 | 0.00 | 0.00 | 0.00 | 53 | 1010.6 |
| 20260506180040 | 22 | 97 | 3.2 | 9.7 | 0.00 | 0.00 | 0.00 | 53 | 1010.7 |
| 20260506175042 | 23 | 115 | 4.8 | 8.0 | 0.00 | 0.00 | 0.00 | 52 | 1010.6 |
| 20260506174940 | 23 | 98 | 1.6 | 8.0 | 0.00 | 0.00 | 0.00 | 52 | 1010.6 |
| 20260506174041 | 23 | 103 | 3.2 | 4.8 | 0.00 | 0.00 | 0.00 | 52 | 1010.4 |
| 20260506173840 | 23 | 105 | 3.2 | 9.7 | 0.00 | 0.00 | 0.00 | 52 | 1010.3 |
| 20260506173041 | 23 | 92 | 9.7 | 9.7 | 0.00 | 0.00 | 0.00 | 51 | 1010.3 |
| 20260506172740 | 23 | 100 | 3.2 | 6.4 | 0.00 | 0.00 | 0.00 | 51 | 1010.4 |
| 20260506172042 | 23 | 100 | 4.8 | 6.4 | 0.00 | 0.00 | 0.00 | 50 | 1010.4 |
| 20260506171640 | 23 | 101 | 3.2 | 6.4 | 0.00 | 0.00 | 0.00 | 50 | 1010.5 |
| 20260506171041 | 24 | 98 | 3.2 | 6.4 | 0.00 | 0.00 | 0.00 | 49 | 1010.5 |
| 20260506170540 | 24 | 92 | 3.2 | 6.4 | 0.00 | 0.00 | 0.00 | 49 | 1010.6 |
| 20260506170041 | 24 | 99 | 3.2 | 6.4 | 0.00 | 0.00 | 0.00 | 49 | 1010.6 |
| 20260506165440 | 25 | 93 | 1.6 | 4.8 | 0.00 | 0.00 | 0.00 | 48 | 1010.6 |
| 20260506165043 | 25 | 82 | 1.6 | 4.8 | 0.00 | 0.00 | 0.00 | 48 | 1010.5 |
| 20260506164340 | 25 | 95 | 1.6 | 4.8 | 0.00 | 0.00 | 0.00 | 47 | 1010.6 |
| 20260506164041 | 25 | 95 | 1.6 | 4.8 | 0.00 | 0.00 | 0.00 | 47 | 1010.5 |
| 20260506163240 | 25 | 96 | 3.2 | 4.8 | 0.00 | 0.00 | 0.00 | 46 | 1010.6 |
| 20260506163042 | 25 | 110 | 1.6 | 9.7 | 0.00 | 0.00 | 0.00 | 46 | 1010.6 |
| 20260506162140 | 25 | 135 | 1.6 | 6.4 | 0.00 | 0.00 | 0.00 | 46 | 1010.6 |
| 20260506162041 | 25 | 115 | 3.2 | 14.5 | 0.00 | 0.00 | 0.00 | 47 | 1010.6 |
| 20260506161040 | 25 | 113 | 3.2 | 9.7 | 0.00 | 0.00 | 0.00 | 47 | 1010.6 |
| 20260506160042 | 26 | 138 | 1.6 | 19.3 | 0.00 | 0.00 | 0.00 | 46 | 1010.7 |
| 20260506155940 | 26 | 96 | 1.6 | 19.3 | 0.00 | 0.00 | 0.00 | 45 | 1010.8 |
| 20260506155043 | 26 | 107 | 4.8 | 11.3 | 0.00 | 0.00 | 0.00 | 45 | 1010.7 |
| 20260506154840 | 26 | 134 | 3.2 | 11.3 | 0.00 | 0.00 | 0.00 | 44 | 1010.7 |
| 20260506154041 | 26 | 98 | 1.6 | 9.7 | 0.00 | 0.00 | 0.00 | 44 | 1010.7 |
| 20260506153740 | 26 | 122 | 1.6 | 9.7 | 0.00 | 0.00 | 0.00 | 45 | 1010.8 |
| 20260506153041 | 26 | 85 | 3.2 | 11.3 | 0.00 | 0.00 | 0.00 | 43 | 1010.9 |
| 20260506152640 | 26 | 92 | 4.8 | 9.7 | 0.00 | 0.00 | 0.00 | 43 | 1010.9 |
| 20260506152042 | 26 | 126 | 4.8 | 17.7 | 0.00 | 0.00 | 0.00 | 44 | 1011.0 |
| 20260506151540 | 26 | 92 | 6.4 | 17.7 | 0.00 | 0.00 | 0.00 | 43 | 1011.0 |
| 20260506151041 | 26 | 91 | 9.7 | 9.7 | 0.00 | 0.00 | 0.00 | 44 | 1011.0 |
| 20260506150440 | 26 | 84 | 3.2 | 11.3 | 0.00 | 0.00 | 0.00 | 44 | 1011.1 |
| 20260506150042 | 26 | 86 | 6.4 | 11.3 | 0.00 | 0.00 | 0.00 | 43 | 1011.0 |
| 20260506145341 | 26 | 180 | 1.6 | 17.7 | 0.00 | 0.00 | 0.00 | 42 | 1011.1 |
| 20260506145042 | 26 | 140 | 6.4 | 17.7 | 0.00 | 0.00 | 0.00 | 42 | 1011.2 |
| 20260506144241 | 27 | 127 | 0.0 | 4.8 | 0.00 | 0.00 | 0.00 | 43 | 1011.2 |
| 20260506144042 | 27 | 171 | 0.0 | 4.8 | 0.00 | 0.00 | 0.00 | 43 | 1011.1 |
| 20260506143141 | 26 | 234 | 1.6 | 11.3 | 0.00 | 0.00 | 0.00 | 43 | 1011.2 |
| 20260506143043 | 26 | 224 | 1.6 | 11.3 | 0.00 | 0.00 | 0.00 | 43 | 1011.2 |
| 20260506142041 | 27 | 97 | 1.6 | 14.5 | 0.00 | 0.00 | 0.00 | 42 | 1011.2 |
| 20260506141042 | 26 | 93 | 1.6 | 11.3 | 0.00 | 0.00 | 0.00 | 44 | 1011.3 |
| 20260506140941 | 26 | 129 | 6.4 | 11.3 | 0.00 | 0.00 | 0.00 | 42 | 1011.3 |
| 20260506140042 | 26 | 113 | 0.0 | 11.3 | 0.00 | 0.00 | 0.00 | 41 | 1011.4 |
| 20260506135841 | 26 | 157 | 3.2 | 19.3 | 0.00 | 0.00 | 0.00 | 41 | 1011.4 |
| 20260506135042 | 26 | 123 | 14.5 | 16.1 | 0.00 | 0.00 | 0.00 | 44 | 1011.4 |
| 20260506134741 | 27 | 121 | 6.4 | 16.1 | 0.00 | 0.00 | 0.00 | 42 | 1011.5 |
| 20260506134042 | 27 | 71 | 8.0 | 12.9 | 0.00 | 0.00 | 0.00 | 44 | 1011.6 |
| 20260506133641 | 27 | 169 | 6.4 | 14.5 | 0.00 | 0.00 | 0.00 | 42 | 1011.7 |
| 20260506133042 | 27 | 84 | 12.9 | 14.5 | 0.00 | 0.00 | 0.00 | 42 | 1011.8 |
| 20260506132541 | 27 | 79 | 8.0 | 14.5 | 0.00 | 0.00 | 0.00 | 42 | 1011.8 |
| 20260506132042 | 27 | 128 | 6.4 | 8.0 | 0.00 | 0.00 | 0.00 | 42 | 1011.9 |
| 20260506131441 | 27 | 223 | 6.4 | 8.0 | 0.00 | 0.00 | 0.00 | 46 | 1011.9 |
| 20260506131042 | 27 | 150 | 1.6 | 14.5 | 0.00 | 0.00 | 0.00 | 47 | 1011.9 |
| 20260506130341 | 27 | 82 | 8.0 | 17.7 | 0.00 | 0.00 | 0.00 | 44 | 1012.0 |
| 20260506130042 | 27 | 53 | 6.4 | 17.7 | 0.00 | 0.00 | 0.00 | 44 | 1012.1 |
| 20260506125241 | 27 | 92 | 1.6 | 14.5 | 0.00 | 0.00 | 0.00 | 42 | 1012.1 |
| 20260506125042 | 27 | 132 | 3.2 | 14.5 | 0.00 | 0.00 | 0.00 | 43 | 1012.2 |
| 20260506124141 | 26 | 341 | 1.6 | 9.7 | 0.00 | 0.00 | 0.00 | 46 | 1012.4 |
| 20260506124041 | 26 | 227 | 4.8 | 14.5 | 0.00 | 0.00 | 0.00 | 45 | 1012.4 |
| 20260506123040 | 26 | 157 | 3.2 | 12.9 | 0.00 | 0.00 | 0.00 | 43 | 1012.5 |
| 20260506122042 | 26 | 153 | 4.8 | 12.9 | 0.00 | 0.00 | 0.00 | 46 | 1012.6 |
| 20260506121940 | 26 | 171 | 1.6 | 19.3 | 0.00 | 0.00 | 0.00 | 48 | 1012.5 |
| 20260506121041 | 26 | 147 | 4.8 | 14.5 | 0.00 | 0.00 | 0.00 | 44 | 1012.6 |
| 20260506120840 | 26 | 92 | 4.8 | 16.1 | 0.00 | 0.00 | 0.00 | 43 | 1012.7 |
| 20260506120041 | 27 | 132 | 8.0 | 16.1 | 0.00 | 0.00 | 0.00 | 42 | 1012.7 |
| 20260506115740 | 27 | 78 | 3.2 | 9.7 | 0.00 | 0.00 | 0.00 | 43 | 1012.7 |
| 20260506115042 | 27 | 227 | 1.6 | 11.3 | 0.00 | 0.00 | 0.00 | 45 | 1012.8 |
| 20260506114640 | 27 | 260 | 4.8 | 9.7 | 0.00 | 0.00 | 0.00 | 45 | 1012.9 |
| 20260506114042 | 26 | 231 | 9.7 | 9.7 | 0.00 | 0.00 | 0.00 | 47 | 1012.9 |
| 20260506113540 | 26 | 88 | 0.0 | 9.7 | 0.00 | 0.00 | 0.00 | 46 | 1012.8 |
| 20260506113041 | 26 | 129 | 1.6 | 11.3 | 0.00 | 0.00 | 0.00 | 44 | 1012.9 |
| 20260506112440 | 26 | 136 | 8.0 | 11.3 | 0.00 | 0.00 | 0.00 | 43 | 1012.9 |
| 20260506112041 | 26 | 261 | 3.2 | 4.8 | 0.00 | 0.00 | 0.00 | 47 | 1012.9 |
| 20260506111340 | 26 | 239 | 0.0 | 8.0 | 0.00 | 0.00 | 0.00 | 46 | 1013.1 |
| 20260506111041 | 26 | 234 | 6.4 | 8.0 | 0.00 | 0.00 | 0.00 | 46 | 1013.2 |
| 20260506110240 | 25 | 177 | 1.6 | 20.9 | 0.00 | 0.00 | 0.00 | 46 | 1013.3 |
| 20260506110041 | 25 | 149 | 1.6 | 20.9 | 0.00 | 0.00 | 0.00 | 47 | 1013.2 |
| 20260506105140 | 25 | 96 | 3.2 | 12.9 | 0.00 | 0.00 | 0.00 | 44 | 1013.4 |
| 20260506105041 | 25 | 111 | 1.6 | 14.5 | 0.00 | 0.00 | 0.00 | 45 | 1013.4 |
| 20260506104040 | 26 | 139 | 6.4 | 8.0 | 0.00 | 0.00 | 0.00 | 44 | 1013.5 |
| 20260506103042 | 26 | 282 | 3.2 | 8.0 | 0.00 | 0.00 | 0.00 | 44 | 1013.6 |
| 20260506102940 | 26 | 125 | 0.0 | 8.0 | 0.00 | 0.00 | 0.00 | 45 | 1013.6 |
| 20260506102042 | 26 | 225 | 4.8 | 11.3 | 0.00 | 0.00 | 0.00 | 46 | 1013.8 |
| 20260506101840 | 25 | 225 | 3.2 | 11.3 | 0.00 | 0.00 | 0.00 | 46 | 1013.8 |
| 20260506101041 | 26 | 84 | 1.6 | 12.9 | 0.00 | 0.00 | 0.00 | 47 | 1013.9 |
| 20260506100740 | 25 | 218 | 1.6 | 12.9 | 0.00 | 0.00 | 0.00 | 46 | 1013.9 |
| 20260506100041 | 25 | 248 | 3.2 | 9.7 | 0.00 | 0.00 | 0.00 | 46 | 1014.1 |
| 20260506095640 | 25 | 224 | 1.6 | 11.3 | 0.00 | 0.00 | 0.00 | 45 | 1014.1 |
| 20260506095041 | 25 | 217 | 6.4 | 11.3 | 0.00 | 0.00 | 0.00 | 47 | 1014.1 |
| 20260506094540 | 25 | 174 | 0.0 | 12.9 | 0.00 | 0.00 | 0.00 | 48 | 1014.2 |
| 20260506094041 | 25 | 196 | 4.8 | 14.5 | 0.00 | 0.00 | 0.00 | 48 | 1014.3 |
| 20260506093440 | 25 | 248 | 1.6 | 12.9 | 0.00 | 0.00 | 0.00 | 48 | 1014.3 |
| 20260506093041 | 25 | 244 | 1.6 | 11.3 | 0.00 | 0.00 | 0.00 | 46 | 1014.3 |
| 20260506092340 | 25 | 193 | 3.2 | 6.4 | 0.00 | 0.00 | 0.00 | 48 | 1014.2 |
| 20260506092042 | 25 | 223 | 4.8 | 8.0 | 0.00 | 0.00 | 0.00 | 46 | 1014.3 |
| 20260506091240 | 25 | 231 | 6.4 | 6.4 | 0.00 | 0.00 | 0.00 | 47 | 1014.4 |
| 20260506091042 | 25 | 277 | 4.8 | 6.4 | 0.00 | 0.00 | 0.00 | 47 | 1014.4 |
| 20260506090140 | 25 | 205 | 3.2 | 11.3 | 0.00 | 0.00 | 0.00 | 50 | 1014.3 |
| 20260506090041 | 25 | 228 | 3.2 | 11.3 | 0.00 | 0.00 | 0.00 | 50 | 1014.4 |
| 20260506085040 | 24 | 215 | 3.2 | 11.3 | 0.00 | 0.00 | 0.00 | 50 | 1014.3 |
| 20260506084042 | 24 | 142 | 1.6 | 9.7 | 0.00 | 0.00 | 0.00 | 50 | 1014.4 |
| 20260506083940 | 24 | 230 | 6.4 | 9.7 | 0.00 | 0.00 | 0.00 | 50 | 1014.4 |
| 20260506083041 | 23 | 214 | 3.2 | 6.4 | 0.00 | 0.00 | 0.00 | 49 | 1014.4 |
| 20260506082840 | 23 | 236 | 1.6 | 4.8 | 0.00 | 0.00 | 0.00 | 50 | 1014.4 |
| 20260506082041 | 23 | 256 | 3.2 | 6.4 | 0.00 | 0.00 | 0.00 | 52 | 1014.4 |
| 20260506081740 | 23 | 197 | 0.0 | 6.4 | 0.00 | 0.00 | 0.00 | 50 | 1014.3 |
| 20260506081041 | 23 | 225 | 1.6 | 6.4 | 0.00 | 0.00 | 0.00 | 51 | 1014.3 |
| 20260506080640 | 23 | 150 | 1.6 | 6.4 | 0.00 | 0.00 | 0.00 | 53 | 1014.3 |
| 20260506073340 | 21 | 156 | 0.0 | 4.8 | 0.00 | 0.00 | 0.00 | 59 | 1014.6 |
| 20260506073042 | 21 | 296 | 1.6 | 6.4 | 0.00 | 0.00 | 0.00 | 61 | 1014.6 |
| 20260506072240 | 20 | 192 | 0.0 | 6.4 | 0.00 | 0.00 | 0.00 | 62 | 1014.6 |
| 20260506072042 | 20 | 248 | 1.6 | 6.4 | 0.00 | 0.00 | 0.00 | 61 | 1014.6 |
| 20260506071140 | 20 | 161 | 0.0 | 4.8 | 0.00 | 0.00 | 0.00 | 63 | 1014.6 |
| 20260506071041 | 20 | 161 | 0.0 | 4.8 | 0.00 | 0.00 | 0.00 | 62 | 1014.6 |